Regional Weather Roundup
Issued by NWS

Home | Current Version | Previous Version | Graphics & Text | Print | Product List | Glossary On
Versions: 1 2 3 4 5 6 7 8 9 10 11 12 13 14 15 16 17 18 19 20 21 22 23 24 25 26 27 28 29 30 31 32 33 34 35 36 37 38 39 40 41 42 43 44 45 46 47 48 49 50
000
ASUS43 KLSX 281559
RWRMO

WEATHER SUMMARY FOR MISSOURI
NATIONAL WEATHER SERVICE SPRINGFIELD MO
1100 AM CDT SAT MAR 28 2015

NOTE: "FAIR" INDICATES FEW OR NO CLOUDS BELOW 12,000 FEET WITH NO
       SIGNIFICANT WEATHER AND/OR OBSTRUCTIONS TO VISIBILITY.
       CURRENT SKY AND/OR WEATHER CONDITIONS ARE NOT AVAILABLE FOR
       CHILLICOTHE AND FARMINGTON.

MOZ001>031-035>038-043-044-053-054-281700-
...NORTHERN AND WESTERN MISSOURI...

CITY           SKY/WX    TMP DP  RH WIND       PRES   REMARKS
KANSAS CTY INT CLOUDY    42  30  62 E18       30.18R
KANSAS C DTWN  CLOUDY    43  30  60 SE12      30.19R
LEE`S SUMMIT   PTSUNNY   41  30  65 E10       30.19S
ST JOSEPH      CLOUDY    42  30  62 SE15      30.20R
CHILLICOTHE      N/A     39  29  67 SE9       30.26R
KIRKSVILLE     CLOUDY    39  19  44 SE9       30.28R

$$
MOZ066>068-077>081-088>096-101>105-281700-
...SOUTHWEST MISSOURI...

CITY           SKY/WX    TMP DP  RH WIND       PRES   REMARKS
SPRINGFIELD    LGT RAIN  40  25  55 SE17      30.18S
JOPLIN         MOSUNNY   51  32  48 E13       30.13F

$$
MOZ032>034-039>042-045>050-055>058-069>072-281700-
...CENTRAL MISSOURI...

CITY           SKY/WX    TMP DP  RH WIND       PRES   REMARKS
COLUMBIA       CLOUDY    37  27  67 SE8       30.27R
JEFFERSON CITY CLOUDY    37  27  67 SE6       30.29R
ROLLA          CLOUDY    35  29  78 MISG      30.25S
SEDALIA        CLOUDY    40  31  70 SE13      30.24S
OSAGE BEACH    CLOUDY    36  30  80 SE10      30.26S WCI  28

$$
MOZ051-052-059>065-281700-
...EAST CENTRAL MISSOURI...

CITY           SKY/WX    TMP DP  RH WIND       PRES   REMARKS
ST LOUIS INTL  MOSUNNY   37  17  44 SE8       30.34R
SPIRIT OF STL  MOSUNNY   38  16  40 VRB7      30.32R
ST CHARLES     SUNNY     36  21  54 E10       30.34R WCI  28

$$
MOZ072>076-082>087-097>100-106>115-281700-
...SOUTH CENTRAL AND SOUTHEAST MISSOURI...

CITY           SKY/WX    TMP DP  RH WIND       PRES   REMARKS
CAPE GIRARDEAU SUNNY     40  19  43 N6        30.33R
FARMINGTON     SUNNY     37  18  44 SE5       30.33R
POPLAR BLUFF   CLOUDY    38  24  57 E6        30.32R
WEST PLAINS    LGT SNOW  32  29  88 E8        30.27S VSB 3/4 WCI  25

$$


USA.gov is the U.S. government's official web portal to all federal, state and local government web resources and services.